Hourly Data Report for December 31, 2017

CARBERRY CS
MANITOBA

49°54'20.900" N
99°21'26.800" W
383.50 m
5010547
71170
WZE

Download Data

Hourly Data (December 2017)
Hourly Data Report for December 31, 2017
TIME
LST
Temp Definition
°C
Dew Point Definition
°C
Rel Hum Definition
%
Precip. Amount Definition
mm

Wind Dir Definition
10's deg

Wind Spd Definition
km/h
Visibility Definition
km
Stn Press Definition
kPa
Hmdx Definition


Wind Chill Definition


Weather Definition


00:00 -31.3 -35.0 69 0.0 25 14   99.09   -43 LegendNANA
01:00 -31.6 -35.5 69 0.0 26 13   99.10   -43 LegendNANA
02:00 -31.1 -34.9 69 0.0 25 16   99.11   -43 LegendNANA
03:00 -31.1 -34.9 69 0.0 25 16   99.13   -43 LegendNANA
04:00 -30.6 -34.4 69 0.0 26 22   99.15   -44 LegendNANA
05:00 -30.9 -34.6 70 0.0 26 19   99.11   -44 LegendNANA
06:00 -31.1 -34.9 69 0.0 26 17   99.09   -44 LegendNANA
07:00 -30.9 -34.7 70 0.0 26 15   99.09   -43 LegendNANA
08:00 -30.2 -34.0 69 0.0 26 18   99.13   -43 LegendNANA
09:00 -29.9 -33.8 69 0.0 26 18   99.18   -42 LegendNANA
10:00 -28.7 -33.4 64 0.0 26 15   99.23   -40 LegendNANA
11:00 -26.8 -31.9 62 0.0 26 18   99.25   -38 LegendNANA
12:00 -25.7 -30.9 62 0.0 27 21   99.22   -38 LegendNANA
13:00 -24.4 -29.9 60 0.0 27 18   99.18   -35 LegendNANA
14:00 -22.8 -28.7 59 0.0 26 19   99.16   -34 LegendNANA
15:00 -22.0 -27.7 60 0.0 27 18   99.16   -32 LegendNANA
16:00 -22.2 -27.3 63 0.0 26 21   99.19   -34 LegendNANA
17:00 -23.3 -27.6 68 0.0 26 18   99.20   -34 LegendNANA
18:00 -23.7 -27.6 70 0.0 26 18   99.22   -35 LegendNANA
19:00 -24.3 -28.0 71 0.0 26 19   99.23   -36 LegendNANA
20:00 -25.0 -28.6 72 0.0 26 19   99.25   -37 LegendNANA
21:00 -26.2 -29.7 73 0.0 26 14   99.26   -36 LegendNANA
22:00 -25.8 -29.1 74 0.0 25 14   99.23   -36 LegendNANA
23:00 -26.1 -29.5 73 0.0 25 15   99.27   -37 LegendNANA

Notes on Data Quality.

Legend

  • E = Estimated
  • M = Missing
  • NA = Not Available*
  • [empty] = Indicates an unobserved value
Date modified: